RH
2 2 3 3 3 3 3 2 2 2 2 2 2 2 2 2 2 2 2 2 2 2 2 2 2 2 2 2 2 2 3 3 3 4 4 5 5 4 5 5 6 9
2 3 3 2 2 2 2 3 2 2 2 2 2 2 2 2 2 2 2 2 2 2 2 2 2 2 2 2 2 2 2 2 2 3 3 4 4 4 4 5 5 5
2 2 3 3 3 3 3 3 2 2 2 2 2 2 2 2 2 2 2 2 2 2 2 2 2 2 2 2 2 2 2 2 2 2 3 3 3 4 4 4 5 4
3 3 3 3 3 3 3 3 3 2 2 2 2 2 2 2 2 2 2 2 2 2 2 2 2 2 2 2 2 2 2 2 2 2 2 2 2 3 3 4 4 4
2 2 3 3 3 3 3 3 3 3 3 3 3 3 3 3 2 2 2 2 2 2 2 2 2 2 2 2 2 2 2 2 2 2 2 2 2 2 2 3 3 3
3 3 3 3 3 3 3 3 3 3 3 3 3 3 2 2 2 2 2 2 2 2 2 2 2 1 2 2 2 2 2 2 2 2 2 2 2 2 2 2 2 3
2 3 3 3 3 2 2 2 2 2 2 2 2 2 2 2 2 2 2 2 2 2 2 1 1 2 1 1 2 2 2 2 2 2 2 2 2 2 2 2 2 2
2 2 2 2 2 2 2 2 2 2 2 2 2 2 2 2 2 2 2 2 2 2 2 2 1 1 2 1 1 2 2 2 2 2 2 2 2 2 2 2 2 2
2 2 2 2 2 2 2 2 2 2 2 2 2 2 2 2 2 2 2 2 2 2 2 2 2 2 2 2 2 1 2 2 2 2 2 2 2 2 2 2 2 2
2 2 2 2 2 2 2 2 2 2 2 2 2 2 2 2 2 2 2 2 2 2 2 2 2 2 1 2 2 1 2 2 2 2 2 2 2 2 2 2 2 2
2 2 2 2 2 2 2 2 2 2 2 2 2 2 2 2 2 2 2 2 2 2 2 2 2 2 2 2 2 2 2 2 2 2 2 2 2 2 2 2 2 2
2 2 2 2 2 2 2 2 2 2 2 2 2 2 2 2 2 2 2 2 2 2 2 2 2 2 2 2 2 2 2 2 2 2 2 2 2 2 2 2 2 2
2 2 2 2 2 2 2 2 2 2 2 2 2 2 2 2 2 2 2 2 2 2 2 2 2 2 2 2 2 2 2 2 2 2 2 2 2 2 2 2 2 2
2 2 2 2 2 2 2 2 2 2 2 2 2 2 2 2 2 2 2 2 2 2 2 2 2 2 2 2 2 2 2 2 2 2 2 2 2 2 2 2 2 2
2 2 2 2 2 2 2 3 2 2 2 2 2 2 2 2 2 2 2 2 2 2 2 2 2 2 2 2 2 2 2 2 2 2 2 2 2 2 2 2 2 2
2 2 2 2 2 2 2 3 2 2 2 2 2 2 2 2 2 2 2 2 2 2 2 2 2 2 2 2 2 2 2 2 2 2 2 2 2 2 2 2 2 2
3 2 2 2 2 3 3 3 3 2 2 2 2 2 2 2 2 2 2 2 2 2 2 2 2 3 2 2 2 2 2 2 2 2 2 2 2 2 2 2 2 2
3 3 3 3 2 3 3 3 3 3 3 3 2 2 2 3 3 3 2 2 2 2 2 2 3 3 2 2 2 2 2 2 2 2 2 2 2 2 2 2 2 2
3 3 2 3 3 3 3 3 3 3 3 3 3 3 3 3 3 3 2 2 3 2 2 2 2 3 3 3 2 2 3 2 2 2 2 2 2 2 2 2 2 2
2 2 2 3 3 3 3 3 3 3 3 3 3 3 3 3 3 3 3 3 3 3 2 2 2 3 3 3 3 3 3 3 3 3 3 2 2 2 2 2 2 2
2 2 2 2 2 3 3 3 3 3 3 3 3 3 3 3 3 3 3 3 3 3 3 3 3 3 3 3 3 3 3 3 3 3 3 3 3 3 2 2 2 2
3 3 2 2 3 2 3 3 3 3 3 3 3 3 3 3 3 3 3 3 3 3 3 3 3 3 3 3 3 3 3 3 3 3 3 3 3 3 3 3 3 3
3 3 3 3 3 3 3 3 3 3 3 3 3 3 3 3 3 3 3 3 3 3 3 3 3 3 3 3 3 3 3 3 3 3 3 3 3 3 3 3 3 3
3 3 3 3 3 3 3 3 3 3 3 3 3 3 3 3 3 3 3 3 3 3 3 3 3 3 3 3 3 3 3 3 3 3 3 3 3 3 3 3 3 3
3 3 3 3 3 3 3 3 3 4 3 3 3 3 3 3 3 3 3 3 3 3 3 3 3 3 3 3 3 3 3 3 3 3 3 3 3 3 3 3 4 3
4 3 3 3 3 3 3 3 3 3 3 3 4 4 4 4 4 3 3 3 3 3 3 3 3 3 3 3 3 3 3 3 3 3 3 3 3 4 4 4 4 4
Wind_Speed
63 64 66 68 69 71 72 73 74 76 77 78 80 81 82 83 83 84 85 85 86 87 89 92 95 98 101 103 105 106 107 108 110 113 114 115 116 117 118 120 121 123
62 63 64 66 67 68 69 70 72 73 75 76 77 78 79 80 81 81 82 82 82 83 85 87 90 92 95 98 100 102 102 104 106 109 111 113 114 115 116 117 118 119
61 61 62 63 65 66 67 69 70 72 73 73 73 74 75 76 77 77 78 79 80 81 82 83 84 86 88 91 94 96 98 99 102 104 106 108 110 113 114 116 117 118
58 58 59 61 63 64 65 67 69 70 71 71 71 71 72 73 74 74 75 75 76 77 78 79 80 82 84 85 87 89 91 94 98 100 101 103 106 108 111 113 116 117
55 56 57 59 60 62 63 65 66 68 68 68 68 69 70 71 72 72 72 73 73 73 74 75 77 79 80 82 83 84 86 89 92 96 97 99 101 104 106 110 113 114
52 53 54 56 58 59 60 62 63 65 65 65 66 67 67 68 69 69 70 70 71 72 72 72 73 74 75 76 79 81 83 85 87 90 93 96 98 100 102 105 107 109
48 49 50 52 54 56 57 58 60 61 62 62 63 63 64 64 64 65 66 67 69 70 71 70 70 70 70 71 73 76 79 82 84 86 88 91 94 96 99 100 101 103
46 46 46 48 50 51 53 54 55 57 58 58 58 58 59 60 60 61 62 64 66 67 68 68 68 68 68 67 68 70 73 77 81 83 85 87 89 91 94 97 98 99
42 43 44 45 46 46 48 50 51 52 53 54 54 53 54 55 56 57 59 60 61 63 64 66 66 66 65 66 66 67 69 72 76 79 82 83 84 86 88 91 94 96
39 41 42 43 43 43 45 47 49 48 49 51 51 49 50 51 53 54 55 57 58 59 61 62 63 63 64 64 64 65 66 68 71 74 77 79 80 81 83 86 89 92
36 38 40 41 42 42 42 45 46 45 46 49 49 48 48 48 49 50 53 54 55 56 57 58 59 61 62 62 62 63 64 65 67 69 72 75 77 78 80 82 84 87
34 35 37 39 40 41 41 43 44 43 44 46 47 48 48 47 46 48 49 51 52 53 53 54 56 58 59 60 61 62 62 63 64 66 69 72 74 76 77 78 80 82
31 32 34 35 37 39 40 42 43 43 42 43 46 47 46 45 46 46 46 47 49 50 50 51 52 54 56 57 59 61 61 62 62 64 66 68 71 73 74 75 76 77
28 29 30 32 33 35 38 40 43 43 42 41 43 45 44 43 44 43 43 44 46 47 48 48 49 50 52 54 57 59 60 60 61 62 64 66 68 70 71 73 74 74
26 27 27 28 29 32 35 39 42 43 42 41 41 42 41 40 41 41 41 42 43 44 45 45 46 47 49 52 54 56 58 59 60 61 63 64 65 67 68 70 71 72
26 26 26 26 27 29 33 37 40 41 41 40 39 39 39 38 39 39 40 40 41 41 42 43 44 45 47 49 51 54 55 57 58 59 61 62 64 65 67 68 69 69
25 25 25 25 25 27 30 34 37 38 38 38 38 37 37 37 37 38 38 39 39 39 39 40 41 43 45 47 48 51 53 54 56 57 58 60 61 63 65 66 67 68
22 22 22 23 23 24 27 30 32 34 35 35 35 35 34 35 36 37 38 38 39 38 38 38 39 40 43 45 46 48 50 52 53 55 56 58 59 60 62 63 65 66
18 19 19 20 20 21 23 25 28 29 31 32 32 32 33 34 35 36 36 36 37 37 37 37 37 38 40 42 44 46 47 49 50 52 54 55 57 58 59 61 62 63
17 17 17 17 18 19 20 21 23 25 27 28 29 29 30 31 32 32 33 34 35 36 36 36 36 36 38 40 42 43 45 46 47 49 51 53 54 56 57 58 59 60
18 18 17 17 17 17 17 18 20 22 23 24 25 26 27 27 28 29 30 31 32 33 34 34 34 34 36 38 40 42 44 45 46 47 48 50 52 53 54 55 56 57
19 18 18 17 16 16 16 17 18 19 20 21 22 23 23 24 25 26 27 28 29 30 31 32 33 33 34 36 38 40 42 43 45 45 47 48 49 49 50 52 53 54
18 18 17 17 16 16 16 16 16 17 18 19 19 20 21 21 22 23 24 25 26 27 28 29 30 31 32 34 35 37 39 41 42 43 44 45 45 45 46 48 50 52
19 18 16 16 15 15 15 15 15 16 16 17 18 18 19 19 20 20 21 21 22 23 25 26 27 28 30 31 33 34 36 38 39 39 40 41 42 43 44 45 48 50
22 20 18 16 15 14 14 14 14 15 15 15 16 16 17 18 18 18 18 18 19 20 21 22 24 25 27 28 30 31 33 35 36 36 37 38 39 40 42 43 45 47
24 23 21 20 18 16 15 14 13 13 13 14 14 14 15 16 16 16 16 17 17 18 19 19 20 22 23 25 27 29 30 32 33 33 34 35 36 37 39 40 42 44
Wind_Direction
266 265 263 262 260 260 259 259 258 258 257 256 256 256 256 255 255 254 253 252 251 250 248 247 247 247 247 247 247 246 245 244 244 244 244 244 243 242 241 240 238 236
269 267 265 264 263 262 261 260 259 258 257 256 256 255 255 255 255 254 254 253 252 251 250 248 247 246 246 246 246 246 246 245 243 243 243 243 243 243 242 242 240 238
270 268 267 266 264 263 262 261 260 260 259 258 257 257 257 256 256 255 254 254 253 252 251 250 249 248 247 246 245 245 246 245 245 244 243 242 242 242 242 242 242 241
268 267 265 264 263 262 261 261 260 260 260 260 260 260 260 259 259 258 257 256 254 253 252 251 250 249 248 247 246 245 244 244 245 245 244 243 241 241 241 241 241 241
267 266 265 263 262 261 261 260 260 260 260 260 260 260 260 260 260 260 259 258 257 256 254 252 250 248 247 247 246 245 244 243 243 243 244 244 243 241 240 240 240 240
267 265 264 263 262 261 261 260 260 260 260 260 259 259 259 259 259 259 259 259 259 258 256 254 251 249 247 246 245 244 244 243 242 241 242 242 243 242 241 240 239 239
268 266 264 263 263 262 262 261 261 260 260 260 259 259 259 258 257 257 257 257 257 257 256 255 254 252 250 247 244 243 243 243 242 241 240 240 241 241 242 242 241 240
271 269 267 265 264 264 263 262 262 261 261 260 259 258 258 257 257 256 255 254 254 255 255 255 254 253 251 249 246 243 242 241 242 242 242 241 240 240 240 241 241 240
273 272 269 267 265 264 264 264 263 262 262 261 260 259 258 257 256 255 254 253 253 253 253 253 253 253 252 250 247 244 241 240 240 241 242 242 241 240 240 240 240 240
274 273 271 269 266 264 263 264 263 263 263 263 262 260 258 256 255 255 254 253 252 251 251 251 252 252 251 250 248 245 242 240 239 239 240 242 242 241 240 239 239 239
273 271 270 269 268 266 264 263 263 262 262 263 263 261 259 257 256 255 254 254 253 251 251 251 251 251 251 250 249 247 244 242 240 239 239 240 241 241 240 239 239 239
275 272 270 269 269 269 267 265 264 262 261 261 262 261 260 259 257 255 254 254 254 253 251 250 249 249 250 250 249 247 245 243 241 240 239 239 239 240 240 239 239 238
277 274 271 269 269 269 268 267 266 263 261 260 261 261 261 260 258 256 255 254 253 253 252 250 248 247 247 248 248 247 245 243 242 241 240 240 240 240 240 239 238 237
280 276 272 269 267 266 266 266 265 264 263 260 260 261 261 260 260 258 256 254 253 253 252 251 250 248 247 246 245 245 245 243 242 241 240 240 240 240 240 240 239 237
286 281 277 272 268 264 263 263 264 265 265 264 262 262 263 262 261 260 258 256 255 253 252 251 250 248 247 245 244 244 243 243 242 240 240 239 239 239 239 240 239 238
293 289 284 279 272 266 263 263 264 266 267 267 266 265 264 263 262 261 260 259 257 255 254 252 250 248 247 246 245 244 243 242 242 241 240 239 239 238 238 239 239 238
297 293 289 284 278 271 267 265 267 268 269 268 267 266 265 264 263 262 261 260 258 256 254 252 250 248 247 246 245 244 243 242 241 241 240 240 239 239 239 239 238 238
301 297 293 288 282 276 271 269 269 270 269 268 267 266 265 263 261 260 260 259 259 257 255 252 249 247 247 246 245 244 243 242 241 241 240 240 239 239 239 239 239 239
308 303 298 292 287 281 276 273 271 270 269 268 267 265 263 261 260 261 261 260 260 259 257 254 251 247 245 245 244 244 244 243 242 241 241 240 240 239 239 238 238 238
321 316 309 302 294 287 281 277 274 272 271 269 268 266 264 263 263 262 261 261 260 260 259 257 254 250 247 244 243 243 243 243 242 242 241 240 240 240 239 239 238 238
332 327 321 314 305 297 290 283 278 275 273 271 270 268 266 265 264 262 261 259 259 259 259 258 256 253 250 247 245 243 242 242 242 241 241 240 240 239 239 239 239 238
337 332 327 321 314 307 299 293 286 281 278 275 273 271 269 267 265 263 261 260 259 257 257 256 255 252 250 248 247 246 244 244 243 242 241 241 240 240 239 239 239 239
341 336 331 326 320 315 309 302 297 291 287 283 280 277 274 271 267 264 262 260 259 258 256 255 254 253 250 248 247 247 247 246 246 245 244 244 243 241 240 239 239 239
347 344 339 334 329 323 317 311 305 300 295 291 287 284 281 277 273 269 265 262 260 259 257 255 254 253 251 249 248 248 248 248 248 247 246 245 245 243 241 240 239 239
351 349 346 343 339 333 326 320 313 308 302 297 293 290 286 283 279 275 271 268 264 261 259 256 254 252 251 250 249 249 249 250 249 249 248 247 246 245 243 242 240 240
355 353 352 350 348 344 338 332 324 318 311 305 300 295 291 287 284 280 276 272 267 264 261 259 256 254 252 251 250 250 249 249 249 249 249 248 247 247 246 244 243 242